This demonstration page uses our WeatherBlox Daily Observations layout. Learn more.

Left ArrowRight Arrow

Hourly Observations for November 7, 2022

Temp ( °F °C ) Dew Point ( °F °C ) Humidity (%) Winds ( mph kmh ) Pressure ( in mb ) Visibility ( mi km ) Precip ( " mm )
12:53 am 00:53 Clear 48 8.9 27 -2.8 44 44 NE 14 22 30.25 1025 10 16 0.00 0.00
1:53 am 01:53 Clear 47 8.3 27 -2.8 45 45 ENE 16 26 30.26 1025 10 16 0.00 0.00
2:53 am 02:53 Clear 47 8.3 27 -2.8 45 45 ENE 15 24 30.27 1025 10 16 0.00 0.00
3:53 am 03:53 Clear 47 8.3 28 -2.2 47 47 ENE 13 20 30.27 1025 10 16 0.00 0.00
4:53 am 04:53 Mostly Clear 49 9.4 25 -3.9 39 39 ENE 14 22 30.28 1026 10 16 0.00 0.00
5:53 am 05:53 Partly Cloudy 49 9.4 23 -5 36 36 E 15 24 30.31 1026 10 16 0.00 0.00
6:53 am 06:53 Partly Cloudy 48 8.9 21 -6.1 34 34 ENE 15 24 30.32 1027 10 16 0.00 0.00
7:53 am 07:53 Mostly Sunny 49 9.4 22 -5.6 34 34 ENE 17 28 30.34 1027 10 16 0.00 0.00
8:53 am 08:53 Mostly Sunny 52 11.1 22 -5.6 30 30 E 18 30 30.35 1028 10 16 0.00 0.00
9:53 am 09:53 Partly Cloudy 54 12.2 22 -5.6 28 28 E 23 37 30.35 1028 10 16 0.00 0.00
10:53 am 10:53 Partly Cloudy 55 12.8 26 -3.3 32 32 E 20 31 30.35 1028 10 16 0.00 0.00
11:53 am 11:53 Partly Cloudy 60 15.6 29 -1.7 30 30 E 15 24 30.32 1027 10 16 0.00 0.00
12:53 pm 12:53 Partly Cloudy 61 16.1 32 0 33 33 E 15 24 30.29 1026 10 16 0.00 0.00
1:53 pm 13:53 Mostly Sunny 63 17.2 34 1.1 34 34 E 13 20 30.27 1025 10 16 0.00 0.00
2:53 pm 14:53 Partly Cloudy 63 17.2 35 1.7 35 35 ESE 14 22 30.26 1025 10 16 0.00 0.00
3:53 pm 15:53 Mostly Sunny 63 17.2 37 2.8 38 38 ESE 16 26 30.25 1024 10 16 0.00 0.00
4:53 pm 16:53 Partly Cloudy 60 15.6 37 2.8 42 42 E 13 20 30.24 1024 10 16 0.00 0.00
5:53 pm 17:53 Mostly Cloudy 60 15.6 38 3.3 44 44 E 12 19 30.24 1024 10 16 0.00 0.00
6:00 pm 18:00 Mostly Cloudy 60 15.6 39 3.9 46 46 E 12 19 30.23 1024 10 16 0.00 0.00
6:53 pm 18:53 Cloudy 59 15 38 3.3 45 45 ESE 14 22 30.24 1024 10 16 0.00 0.00
7:53 pm 19:53 Cloudy 59 15 38 3.3 45 45 ESE 15 24 30.24 1024 10 16 0.00 0.00
8:21 pm 20:21 Cloudy 58 14.4 39 3.9 49 49 ESE 13 20 30.24 1024 10 16 0.00 0.00
8:29 pm 20:29 Cloudy 58 14.4 39 3.9 49 49 ESE 13 20 30.24 1024 10 16 0.00 0.00
8:53 pm 20:53 Cloudy 58 14.4 39 3.9 49 49 ESE 15 24 30.24 1024 10 16 0.00 0.00
9:53 pm 21:53 Cloudy 58 14.4 40 4.4 51 51 ESE 15 24 30.24 1024 10 16 0.00 0.00
10:53 pm 22:53 Cloudy 57 13.9 41 5 55 55 ESE 12 19 30.24 1024 10 16 0.00 0.00
11:53 pm 23:53 Cloudy 58 14.4 43 6.1 57 57 ESE 10 17 30.23 1024 10 16 0.00 0.00

Powered by AerisWeather